Location: Newark
(27.9675°N, 86.8869°E)
Time: 12:22:59
(UTC+00:00)

Explorer 11/Cluster Stage 4 - All Passes

Search period start: 22 October 2019 00:00
Search period end: 01 November 2019 00:00
Orbit: 467 x 1259 km, 28.8° (Epoch: 21 October)

Date Brightness Start Highest point End Pass type
(mag) Time Alt. Az. Time Alt. Az. Time Alt. Az.
22 Oct - 01:25:47 10° SW 01:29:18 32° SSE 01:32:34 10° E daylight
22 Oct - 03:13:43 10° W 03:17:20 89° SSE 03:21:04 10° E daylight
22 Oct - 05:01:53 10° W 05:05:34 83° N 05:09:48 10° E daylight
22 Oct - 06:49:53 10° W 06:53:50 47° SSW 06:58:38 10° ESE daylight
22 Oct - 08:38:59 10° WSW 08:42:13 17° SSW 08:45:53 10° SSE daylight
22 Oct - 23:29:02 10° S 23:30:42 12° SSE 23:32:16 10° SE visible
23 Oct - 01:15:01 10° SW 01:18:47 40° SSE 01:22:14 10° E daylight
23 Oct - 03:03:13 10° W 03:06:53 85° N 03:10:33 10° E daylight
23 Oct - 04:51:28 10° W 04:55:07 89° N 04:59:11 10° E daylight
23 Oct - 06:39:34 10° W 06:43:18 39° SSW 06:47:44 10° SE daylight
23 Oct - 08:29:18 10° SW 08:31:37 13° SSW 08:34:10 10° S daylight
23 Oct - 23:17:18 10° SSW 23:20:08 16° SSE 23:22:42 10° ESE visible
24 Oct - 01:04:15 10° WSW 01:08:18 48° SSE 01:11:52 10° E daylight
24 Oct - 02:52:43 10° W 02:56:26 80° N 03:00:03 10° E daylight
24 Oct - 04:41:02 10° W 04:44:39 84° S 04:48:35 10° ESE daylight
24 Oct - 06:29:17 10° W 06:32:47 32° SSW 06:36:49 10° SE daylight
24 Oct - 23:05:55 10° SSW 23:09:34 20° SSE 23:12:47 10° ESE visible
25 Oct - 00:53:30 10° WSW 00:57:47 57° SSE 01:01:29 10° E daylight
25 Oct - 02:42:11 10° W 02:45:59 78° N 02:49:35 10° E daylight
25 Oct - 04:30:35 10° W 04:34:10 76° SSW 04:37:59 10° ESE daylight
25 Oct - 06:19:02 10° WSW 06:22:15 26° SSW 06:25:52 10° SE daylight
25 Oct - 22:54:40 10° SSW 22:59:01 25° SSE 23:02:41 10° ESE visible
26 Oct - 00:42:45 10° WSW 00:47:17 67° SSE 00:51:06 10° E daylight
26 Oct - 02:31:38 10° W 02:35:32 77° N 02:39:08 10° E daylight
26 Oct - 04:20:07 10° W 04:23:43 66° SSW 04:27:24 10° ESE daylight
26 Oct - 06:08:52 10° WSW 06:11:43 21° SSW 06:14:50 10° SSE daylight
26 Oct - 20:58:50 10° SSE 20:59:53 10° SSE 21:00:56 10° SE visible
26 Oct - 22:43:32 10° SW 22:48:26 31° SSE 22:52:30 10° E visible
27 Oct - 00:32:00 10° WSW 00:36:47 76° SSE 00:40:43 10° E daylight
27 Oct - 02:21:02 10° W 02:25:05 78° N 02:28:43 10° E daylight
27 Oct - 04:09:38 10° W 04:13:13 57° SSW 04:16:50 10° ESE daylight
27 Oct - 05:58:48 10° WSW 06:01:11 16° SSW 06:03:42 10° SSE daylight
27 Oct - 20:46:04 10° S 20:49:15 14° SSE 20:52:09 10° SE visible
27 Oct - 22:32:26 10° SW 22:37:50 38° SSE 22:42:14 10° E visible
28 Oct - 00:21:16 10° WSW 00:26:16 84° S 00:30:20 10° E daylight
28 Oct - 02:10:26 10° W 02:14:37 80° N 02:18:18 10° E daylight
28 Oct - 03:59:10 10° W 04:02:45 48° SSW 04:06:15 10° ESE daylight
28 Oct - 05:48:58 10° SW 05:50:37 13° SSW 05:52:20 10° S daylight
28 Oct - 20:34:13 10° SSW 20:38:35 18° SSE 20:42:27 10° ESE visible
28 Oct - 22:21:24 10° SW 22:27:13 45° SSE 22:31:55 10° E visible
29 Oct - 00:10:30 10° W 00:15:44 90° S 00:19:56 10° E daylight
29 Oct - 01:59:47 10° W 02:04:09 84° N 02:07:53 10° E daylight
29 Oct - 03:48:40 10° W 03:52:14 40° SSW 03:55:39 10° SE daylight
29 Oct - 20:22:38 10° SSW 20:27:53 22° SSE 20:32:27 10° ESE visible
29 Oct - 22:10:22 10° WSW 22:16:37 53° SSE 22:21:33 10° E visible
29 Oct - 23:59:43 10° W 00:05:12 86° N 00:09:33 10° E visible
30 Oct - 01:49:07 10° W 01:53:40 89° N 01:57:29 10° E daylight
30 Oct - 03:38:10 10° W 03:41:43 34° SSW 03:45:01 10° SE daylight
30 Oct - 20:11:12 10° SSW 20:17:10 27° SSE 20:22:18 10° E visible
30 Oct - 21:59:23 10° WSW 22:05:58 61° SSE 22:11:10 10° E visible
30 Oct - 23:48:56 10° W 23:54:39 83° N 23:59:10 10° E visible
31 Oct - 01:38:25 10° W 01:43:10 85° S 01:47:05 10° ESE daylight
31 Oct - 03:27:41 10° W 03:31:10 29° SSW 03:34:23 10° SE daylight
31 Oct - 18:15:48 10° SSE 18:17:33 11° SSE 18:19:17 10° SE night (unlit)
31 Oct - 19:59:53 10° SW 20:06:26 32° SSE 20:12:02 10° E visible
31 Oct - 21:48:25 10° WSW 21:55:18 68° SSE 22:00:45 10° E visible
31 Oct - 23:38:07 10° W 23:44:05 82° N 23:48:46 10° E visible
